Theta_e
313 313 314 314 314 314 314 314 314 314 314 314 314 314 314 315 308 300 295 303 306 313 312 297 296 295 294 291 291 289 281 278 278 280 281 284 283 285 286 283 286 287 286 291 296
312 313 314 314 314 314 314 314 313 313 314 313 313 314 314 313 302 294 306 311 312 313 299 294 292 293 288 289 288 285 278 280 281 281 280 283 283 284 284 284 285 286 291 294 295
312 312 313 314 314 315 314 313 313 313 313 313 313 312 312 309 293 293 309 310 311 308 299 296 295 292 287 288 287 284 281 284 284 285 285 285 285 286 284 283 285 285 289 292 292
312 312 313 313 314 314 313 312 313 312 312 313 313 312 311 301 283 296 308 309 309 303 298 295 292 287 285 284 289 282 287 287 287 289 287 285 287 285 285 286 290 289 290 291 291
311 312 312 313 314 314 312 311 312 312 311 312 312 312 302 289 290 299 307 304 300 299 295 293 290 288 284 286 288 284 286 289 289 289 288 289 286 285 286 288 289 290 291 291 291
312 312 312 312 314 314 312 310 311 310 311 311 311 311 294 284 298 297 298 299 299 297 294 294 291 291 288 286 285 286 287 287 289 288 288 286 284 285 286 288 289 290 291 290 289
313 312 313 312 313 314 313 310 310 308 310 310 309 302 291 289 295 296 297 297 298 297 294 295 294 291 289 286 290 287 283 285 286 287 286 286 282 282 286 288 288 289 289 289 289
314 314 313 314 313 313 312 311 309 308 308 308 308 296 286 297 293 295 297 297 299 299 297 297 297 294 290 290 288 283 280 276 284 286 287 285 278 285 287 286 286 286 287 288 288
314 314 314 314 314 314 313 312 309 310 310 308 294 290 284 300 293 295 296 294 296 297 297 299 295 289 287 283 277 277 269 276 280 286 285 283 279 286 287 286 285 285 285 286 287
315 315 315 314 314 313 312 311 306 303 300 299 293 288 289 288 292 293 294 296 294 294 294 290 288 280 278 275 269 270 272 277 277 282 284 281 281 285 286 285 283 283 284 284 285
317 316 315 314 313 311 301 295 294 294 291 284 285 287 288 292 294 293 296 295 293 290 282 286 278 273 278 280 280 278 277 275 278 284 280 279 279 282 285 283 281 281 282 282 284
317 317 315 313 311 306 296 290 289 291 284 290 288 288 290 291 288 292 296 288 283 278 283 280 275 282 284 283 281 278 272 272 279 282 280 278 278 282 283 282 282 281 281 282 283
318 317 314 312 310 298 292 291 296 294 284 287 287 287 287 291 287 288 292 289 280 275 275 276 282 285 283 281 278 277 272 273 276 279 278 276 274 277 281 282 283 282 281 281 282
318 316 310 310 304 296 291 296 296 294 278 283 283 286 289 289 285 292 293 289 284 275 279 278 284 282 281 279 279 270 280 280 278 270 265 276 266 274 278 280 282 279 280 280 281
317 311 307 306 296 293 294 296 294 292 272 283 283 290 289 286 286 287 292 288 282 279 276 275 280 280 277 280 280 277 281 279 277 265 268 269 264 273 277 277 279 279 280 280 281
314 309 307 302 295 293 295 294 292 281 271 276 281 281 281 284 286 287 288 289 286 282 281 277 284 280 280 282 281 282 276 274 273 266 260 265 265 270 273 276 276 279 279 280 280
310 306 301 300 295 295 293 291 280 273 280 276 277 280 278 279 281 283 282 281 276 270 268 276 278 281 282 278 280 276 265 260 260 258 262 261 266 271 276 278 278 277 279 279 280
306 302 298 297 296 297 294 285 272 274 285 282 279 279 277 278 279 279 279 276 279 276 266 265 268 273 281 278 272 274 267 262 256 259 261 262 263 271 277 279 279 279 279 280 279
305 298 295 295 298 297 289 274 276 278 282 279 280 273 272 278 275 275 276 275 279 277 269 266 269 279 281 282 278 271 267 274 260 258 260 262 267 275 278 274 276 276 278 277 277
300 296 293 297 297 296 286 283 280 284 281 281 279 278 269 270 274 271 274 279 280 281 278 274 266 273 278 281 278 272 276 265 263 256 254 259 257 268 267 271 274 274 274 275 275
300 292 293 296 296 288 284 281 286 287 285 281 281 279 276 271 274 270 275 279 281 279 280 272 267 269 277 269 268 269 265 265 265 267 259 259 264 268 270 269 271 271 274 273 272
297 286 292 295 286 285 285 286 285 282 284 283 282 281 275 274 276 270 276 277 282 278 276 279 273 264 269 276 278 274 268 271 265 260 264 265 266 268 268 267 266 272 273 272 270
290 287 294 293 284 284 285 284 284 283 282 281 281 280 280 274 273 278 278 282 283 281 277 279 267 261 268 272 276 271 275 274 268 271 264 261 265 266 262 265 268 269 273 270 269
290 285 286 287 287 285 285 285 283 283 282 282 281 281 279 274 279 275 278 281 283 282 286 283 275 268 268 267 267 269 273 276 271 263 264 267 270 275 274 271 268 269 269 268 267
292 286 287 282 284 285 286 286 283 281 281 281 278 280 278 274 275 272 278 279 281 284 282 278 265 271 273 272 269 272 272 273 270 271 266 273 266 273 276 276 271 267 262 261 266
288 287 287 280 286 284 287 285 284 282 282 280 277 280 280 276 279 276 277 278 277 279 279 279 266 266 264 274 274 271 273 273 271 273 271 273 272 279 280 266 266 270 262 263 261
294 293 291 288 285 284 284 284 284 284 284 285 282 281 279 281 282 282 281 281 280 278 278 274 267 262 261 268 266 266 268 272 268 265 272 264 272 259 267 263 265 269 262 266 264
Wind_Speed
11 12 12 12 13 13 13 12 12 11 11 11 11 11 10 9 8 9 11 7 10 17 15 9 6 7 5 4 5 2 6 1 1 1 4 3 4 2 3 1 4 2 3 2 1
10 11 12 12 13 13 13 12 11 10 10 10 10 10 9 7 2 9 12 15 16 19 7 5 6 7 4 3 4 6 4 5 2 2 1 3 2 4 5 5 3 2 4 5 1
11 11 12 12 13 13 13 12 10 9 9 10 10 9 8 4 4 5 16 17 15 15 3 2 2 1 6 4 5 2 3 2 2 2 1 2 4 3 2 5 6 4 6 6 2
11 12 12 13 14 14 13 11 10 8 8 9 9 9 9 1 2 3 16 15 13 10 5 6 6 4 5 5 4 4 4 2 2 1 1 3 4 7 5 9 6 7 6 4 3
9 11 12 13 13 14 14 11 9 7 7 9 9 11 2 6 2 6 12 11 5 5 8 4 7 3 5 2 3 3 2 5 4 6 4 3 5 5 9 11 8 8 6 6 6
9 10 12 13 14 14 14 11 8 7 7 8 9 6 2 6 3 7 8 6 6 6 7 8 4 1 4 3 3 2 4 6 4 3 2 2 4 4 6 4 8 6 7 3 5
8 10 12 14 15 15 15 12 7 7 8 8 8 2 8 3 1 6 7 3 4 3 4 3 2 4 1 2 1 2 5 6 1 1 2 1 7 8 7 3 7 7 4 5 4
8 9 11 14 16 16 14 12 8 7 8 7 8 2 3 1 2 4 6 4 7 3 2 2 2 4 4 2 4 5 5 6 4 1 2 5 9 12 8 6 10 8 4 4 3
8 9 11 15 17 18 16 10 7 8 9 7 1 2 2 1 2 4 3 3 6 3 2 2 3 4 5 4 5 8 1 2 9 1 3 3 9 15 5 6 9 6 6 4 2
8 8 11 14 17 19 17 1 3 6 3 1 2 4 3 4 4 5 3 3 2 4 4 7 6 4 5 5 3 3 2 4 6 5 4 9 19 21 12 6 9 8 6 2 4
7 7 8 12 16 17 8 3 7 4 9 2 3 1 2 6 2 1 3 2 4 8 4 5 6 2 4 3 3 3 3 5 7 7 6 8 14 23 15 7 4 6 5 2 6
8 8 8 10 13 13 5 6 2 2 5 3 1 1 1 1 2 3 4 4 6 2 4 6 1 3 2 0 1 2 1 7 7 3 6 5 17 17 8 4 6 7 4 4 7
8 8 7 10 7 6 5 3 1 0 1 3 1 2 3 3 2 4 3 3 5 4 3 5 0 3 2 2 2 4 5 3 5 6 5 8 9 5 3 1 5 5 2 4 6
6 5 5 13 4 1 3 3 1 1 5 3 1 2 1 1 2 1 1 2 3 3 4 3 2 2 2 3 5 3 4 3 3 5 3 5 8 6 3 4 5 1 4 7 8
2 5 4 8 1 3 1 3 1 2 5 1 1 0 2 2 2 1 2 3 3 3 6 6 3 3 2 4 5 8 4 4 1 3 4 5 4 10 2 6 8 6 6 8 8
6 5 2 4 3 1 3 3 2 7 7 2 3 2 4 5 2 2 1 2 1 3 1 5 2 2 3 2 2 4 5 6 4 4 4 5 5 10 4 5 2 3 6 8 9
9 8 4 1 1 3 2 3 6 5 2 5 1 2 2 3 2 3 2 1 2 5 4 5 2 1 1 1 3 7 8 6 8 6 7 4 2 15 6 5 6 5 8 9 8
12 5 6 3 3 3 2 6 4 4 3 2 1 0 0 3 1 4 3 2 1 3 3 4 8 2 1 2 5 2 7 7 6 3 7 3 8 10 6 6 4 5 8 9 9
10 2 3 4 4 2 5 3 8 6 2 1 1 5 5 1 2 4 3 4 4 5 7 4 6 0 2 2 5 4 1 3 5 1 3 4 10 13 1 4 7 7 7 9 8
3 3 1 5 5 2 4 5 3 2 2 1 4 3 3 4 2 4 2 3 4 2 2 4 3 1 3 3 4 5 2 4 4 2 7 8 8 9 6 10 11 8 9 9 6
2 2 2 4 2 4 3 5 4 3 2 4 3 1 5 2 4 3 4 2 3 4 3 5 4 6 3 5 9 1 2 3 4 4 6 5 10 11 11 9 10 9 9 9 9
2 0 3 3 2 0 3 4 1 3 0 3 2 3 6 5 3 3 5 5 5 6 5 4 4 4 11 2 5 5 7 6 6 7 4 3 14 5 8 8 6 10 9 8 8
2 2 1 1 3 3 1 3 2 3 3 3 5 4 3 6 2 4 3 1 5 5 5 5 2 4 10 6 3 3 5 4 3 2 7 5 13 4 3 6 8 11 11 8 8
2 2 1 1 1 2 3 4 3 1 3 3 2 3 3 1 2 3 3 1 4 4 4 4 4 8 9 8 4 4 5 7 6 4 5 15 18 28 14 11 7 10 10 9 8
2 4 4 4 5 5 5 5 4 4 3 4 2 7 7 5 2 5 5 3 4 6 4 4 5 3 10 8 6 14 15 13 14 13 10 23 10 22 21 15 9 6 4 5 7
3 3 1 2 2 7 9 7 11 4 8 5 6 7 8 7 10 9 6 5 6 2 5 4 5 2 6 8 12 15 17 20 20 20 18 24 27 29 26 7 7 8 4 7 6
1 0 2 6 6 6 7 9 10 8 8 6 9 5 9 18 7 2 4 0 4 8 8 5 3 3 7 5 9 12 12 14 6 5 15 10 21 2 8 6 7 8 6 8 7
Wind_Direction
19 15 10 6 3 2 360 357 352 349 352 348 346 345 348 354 16 38 39 327 333 331 334 315 11 354 40 56 37 70 65 142 103 100 171 2 11 307 301 256 342 283 67 64 256
15 10 7 3 359 358 358 351 348 345 348 350 349 348 350 355 94 51 349 350 341 341 347 348 349 356 48 36 16 73 100 179 178 150 216 303 18 304 356 336 275 315 339 344 60
13 6 2 359 356 355 357 352 351 351 349 353 354 352 353 353 82 344 342 350 345 341 262 246 270 291 60 33 3 28 137 154 160 144 212 293 307 290 335 311 217 233 290 303 26
9 6 360 357 355 353 353 349 352 352 351 350 353 349 334 41 105 294 348 348 354 351 19 24 27 45 64 43 4 81 40 51 219 33 325 281 292 311 208 238 232 267 232 240 23
7 1 356 353 350 351 347 344 344 350 340 340 347 339 356 50 74 306 349 346 357 8 39 48 51 47 82 71 16 58 324 308 303 312 263 287 253 249 262 265 276 262 237 240 118
356 357 350 347 347 347 347 340 326 331 326 332 343 338 50 72 288 333 346 346 12 24 22 36 72 353 91 76 74 313 292 284 293 266 255 299 296 25 273 255 292 290 273 97 133
349 347 346 344 343 344 342 341 312 320 320 327 347 27 59 140 349 318 355 347 3 30 48 36 15 89 98 68 4 301 351 342 288 306 282 55 300 226 240 318 271 275 330 160 160
335 339 338 336 336 342 337 328 306 308 323 328 332 63 98 259 246 352 349 336 0 358 64 313 51 97 62 93 26 27 42 5 301 348 355 86 267 276 257 280 265 286 169 181 210
330 338 340 340 337 335 330 310 289 297 302 313 354 114 94 185 31 318 35 352 312 338 321 325 50 71 38 75 23 12 217 315 316 323 264 198 273 260 261 258 268 248 198 211 327
329 337 339 340 338 336 336 275 314 340 336 299 36 46 13 335 312 336 298 335 359 323 27 37 42 63 29 64 219 251 348 265 257 281 353 294 279 286 295 257 249 204 201 190 322
317 331 340 343 344 344 356 1 17 359 39 97 289 292 357 306 272 334 334 18 359 49 40 2 64 174 208 164 139 163 229 240 262 271 310 248 280 286 297 277 232 173 181 282 331
313 321 333 337 344 357 43 61 98 205 319 343 333 312 11 13 331 334 354 72 57 84 344 20 180 193 151 184 237 182 176 271 288 307 334 305 286 293 295 234 177 173 182 351 313
303 304 324 325 338 40 71 67 41 129 123 317 327 325 311 350 352 327 32 106 94 59 31 149 205 149 94 2 359 239 189 242 248 321 257 305 292 313 335 77 144 114 42 320 299
281 276 324 326 66 159 58 346 22 110 69 275 332 334 325 1 25 351 23 105 66 157 171 207 317 143 54 267 135 300 186 262 286 40 272 43 281 297 282 206 198 204 325 315 328
295 151 51 33 209 55 11 332 354 63 16 276 295 300 300 37 304 10 1 20 145 203 91 257 171 198 137 230 139 236 342 302 160 128 39 319 64 268 272 236 228 242 306 326 298
145 138 120 39 56 44 339 341 67 42 264 322 308 319 27 5 19 6 44 36 87 122 22 231 325 173 220 287 231 316 17 33 49 95 14 241 122 279 237 220 210 260 297 285 296
118 85 69 39 134 319 337 58 31 137 344 292 336 33 142 307 5 20 333 306 178 45 341 337 254 273 196 348 19 50 49 343 351 5 227 323 355 245 257 228 208 261 303 296 294
120 79 39 56 333 345 78 52 122 237 256 291 275 28 81 3 23 333 329 311 163 93 97 118 326 142 342 153 180 69 135 148 247 265 276 359 238 255 231 193 212 256 270 280 276
120 52 64 348 341 339 73 77 205 208 133 194 18 66 318 292 164 34 231 213 199 170 160 126 280 220 56 83 109 258 69 150 99 103 26 253 288 294 152 286 264 267 274 281 288
98 88 21 327 332 58 84 242 215 215 134 155 169 136 207 267 349 64 218 217 179 170 141 186 346 263 280 91 10 145 155 46 4 338 297 288 280 246 281 253 252 276 279 283 302
91 87 349 338 311 52 206 234 235 241 210 191 211 195 220 225 174 250 249 272 138 143 104 127 101 285 59 199 182 17 349 45 127 149 189 291 268 223 232 228 230 243 260 270 284
117 76 322 353 47 228 206 200 241 212 256 225 211 155 181 177 213 245 241 214 173 149 167 198 139 243 224 250 199 173 185 158 132 263 233 197 266 237 235 240 207 253 263 274 264
129 110 340 310 198 213 242 284 242 197 209 207 211 201 160 189 225 216 256 15 149 160 163 180 306 353 339 5 353 213 204 162 131 106 206 152 264 308 299 284 248 255 274 275 286
145 161 344 27 308 203 163 223 245 287 257 197 203 142 147 200 227 244 252 212 186 183 168 168 197 188 215 211 146 217 218 207 149 162 196 232 276 288 290 260 274 269 250 271 272
186 235 175 188 220 195 202 169 189 229 224 191 307 219 174 188 212 228 215 236 192 202 163 137 215 249 267 258 216 242 249 226 207 215 200 262 222 267 283 293 265 263 281 281 282
175 161 219 196 146 194 200 200 214 190 161 231 219 193 184 191 194 195 174 193 207 125 158 176 262 106 282 264 266 264 248 243 228 236 244 254 274 269 276 306 283 272 272 271 277
225 289 195 186 169 179 196 206 220 151 224 197 204 154 200 233 211 195 199 222 182 161 182 171 162 60 269 335 315 286 242 227 179 204 216 203 236 5 283 260 254 266 219 243 246